User: anonymous   Login
Location: Unspecified
(0.0000°N, 0.0000°E)
Time: 22:47:33
(UTC+02:00)
Language:

Milstar 3 - Orbit

View from above orbital plane
View from above orbital plane
View from above satellite
View from above satellite

Ground track
Ground track

The orbit data is extracted from the following two-line orbital elements,

1 25724U 99023A   17202.13348185 0.00000060  00000-0  75460-3 0    02
2 25724  28.2236 205.1174 2132299  95.8109 264.1886  9.37482807    08
Epoch (UTC): 21 July 2017 03:12:12
Eccentricity: 0.2132299
inclination: 28.2236°
perigee height: 1097 km
apogee height: 5148 km
right ascension of ascending node: 205.1174°
argument of perigee: 95.8109°
revolutions per day: 9.37482807
mean anomaly at epoch: 264.1886°
orbit number at epoch: 0

The dashed part of the orbit path shows where the satellite is in the earth's shadow,  

DLR